Home > Weather > Nîmes > Past weeks

Flag for France Weather for the Past 2 Weeks in Nîmes, Languedoc-Roussillon, France

Now
70 °F

Passing clouds.


Feels Like: 70 °F
Forecast: 52 / 74 °F
Wind: 23 mph from North

Location: Nimes / Garons

Current Time: May 3, 2016 at 4:52:13 PM

Latest Report: May 3, 2016 at 4:30 PM


Visibility: N/A

Pressure: 30.09 "Hg

Humidity: 35%

Dew Point: 41 °F

Location of NîmesLocation

Historic Weather in Nîmes — Graph

°F

Nîmes Temperature Yesterday

Maximum temperature yesterday: 70 °F (at 4:30 PM)
Minimum temperature yesterday: 50 °F (at 12:00 AM)
Average temperature yesterday: 60 °F

High & Low Weather Summary for the Past Weeks

 TemperatureHumidityPressure
High72 °F (Apr 20, 2:00 PM)100% (Apr 22, 1:30 AM)30.18 "Hg (Apr 22, 1:30 AM)
Low43 °F (Apr 25, 2:30 AM)26% (Apr 28, 2:00 PM)29.77 "Hg (Apr 23, 4:30 PM)
Average56 °F55%30.00 "Hg
* Reported Apr 18 3:00 PM — May 3 3:30 PM, Nîmes, Weather by CustomWeather, © 2016

Note: Actual official high and low records may vary slightly from our data, if they occured in-between our weather recording intervals... More about our weather records

Advertising

Nîmes Weather History for the Previous 24 Hours

Scroll right to see more
 ConditionsComfort  
Time TempWeatherWind HumidityBarometerVisibility
3:30 PM
Tue, May 3
72 °FPassing clouds.23 mph36%30.09 "HgN/A
3:00 PM70 °FSunny.22 mph38%30.09 "Hg10 mi
2:30 PM70 °FPassing clouds.21 mph38%30.09 "HgN/A
1:30 PM70 °FPassing clouds.21 mph38%30.09 "HgN/A
1:00 PM70 °FSunny.23 mph38%30.09 "Hg10 mi
12:30 PM70 °FPassing clouds.21 mph38%30.12 "HgN/A
12:00 PM68 °FSunny.25 mph38%30.12 "Hg10 mi
11:30 AM66 °FSunny.24 mph37%30.09 "Hg10 mi
11:00 AM66 °FPassing clouds.22 mph37%30.12 "HgN/A
10:30 AM66 °FPassing clouds.20 mph40%30.12 "HgN/A
10:00 AM64 °FPassing clouds.17 mph43%30.12 "HgN/A
9:30 AM63 °FSunny.14 mph45%30.12 "Hg10 mi
9:00 AM61 °FPassing clouds.13 mph48%30.12 "HgN/A
8:30 AM59 °FPassing clouds.12 mph51%30.12 "HgN/A
8:00 AM57 °FPassing clouds.9 mph55%30.12 "HgN/A
7:30 AM55 °FPassing clouds.8 mph55%30.09 "HgN/A
7:00 AM55 °FPassing clouds.10 mph55%30.09 "HgN/A
6:30 AM52 °FClear.3 mph62%30.09 "Hg10 mi
6:00 AM54 °FPassing clouds.9 mph58%30.09 "HgN/A
5:30 AM55 °FClear.10 mph55%30.09 "Hg10 mi
5:00 AM57 °FClear.15 mph51%30.07 "Hg10 mi
4:30 AM55 °FPassing clouds.9 mph55%30.09 "HgN/A
3:30 AM55 °FPassing clouds.8 mph55%30.09 "HgN/A
3:00 AM57 °FClear.12 mph55%30.07 "Hg10 mi
2:30 AM59 °FClear.9 mph48%30.09 "Hg10 mi
2:00 AM59 °FPassing clouds.12 mph51%30.09 "HgN/A
1:30 AM59 °FClear.10 mph55%30.09 "Hg10 mi
1:00 AM59 °FPassing clouds.9 mph55%30.09 "HgN/A
12:30 AM57 °FClear.9 mph59%30.09 "Hg10 mi
12:00 AM57 °FPassing clouds.7 mph51%30.09 "HgN/A
11:30 PM
Mon, May 2
61 °FClear.10 mph48%30.09 "Hg10 mi
11:00 PM63 °FClear.15 mph45%30.07 "Hg10 mi
10:30 PM63 °FClear.14 mph45%30.07 "Hg10 mi
10:00 PM63 °FClear.16 mph45%30.04 "Hg10 mi
9:30 PM63 °FSunny.14 mph45%30.04 "Hg10 mi
9:00 PM63 °FSunny.16 mph45%30.04 "Hg10 mi
8:30 PM64 °FSunny.14 mph40%30.01 "Hg10 mi
8:00 PM66 °FSunny.15 mph43%30.01 "Hg10 mi
7:30 PM68 °FSunny.16 mph40%30.01 "Hg10 mi
7:00 PM68 °FSunny.23 mph38%30.01 "Hg10 mi
6:30 PM70 °FSunny.25 mph35%29.98 "Hg10 mi
6:00 PM70 °FSunny.26 mph38%29.98 "Hg10 mi
5:30 PM70 °FSunny.26 mph40%29.98 "Hg10 mi
5:00 PM70 °FPassing clouds.20 mph43%29.98 "HgN/A
4:30 PM70 °FSunny.22 mph43%29.98 "Hg10 mi
4:00 PM68 °FPassing clouds.24 mph43%29.98 "HgN/A
Weather by CustomWeather, © 2016

See weather overviewHow to use our weather pages